Погода в Танрыкулове

Россия / Курганская область     54°54′18″N   63°09′27″E
темп.,
°C
ветер,
м/с
пор.,
м/с
влажн.,
%
обл.,
%
осадки,
мм/ч
давл.,
гПа
погр.,
м
17 апреля, сб
сб1723:00+6всв385675 0.0 1026268
02:00+5всв486099 0.0 1026274
05:00+2в35695 0.0 102793
08:00+4юв346046 0.0 1027188
11:00+7юв2353100 0.0 1026328
14:00+8ю224682 0.0 1025560
17:00+10юз344621 0.0 1023995
20:00+7зюз226511 0.0 102122
18 апреля, вс
вс1823:00+6зюз22744 0.0 102011
02:00+5з33800 0.0 101942
05:00+3сз35805 0.0 101884
08:00+5зсз511660 0.0 1017428
11:00+9ссз810518 0.0 10171480
14:00+6с8105669 0.0 10201121
17:00+5ссв9103672 0.0 10231736
20:00+2св7104011 0.0 1027987
19 апреля, пн
пн1923:00−1св610430 0.0 1030796
02:00−3всв58440 0.0 10321099
05:00−4св48460 0.0 10341036
08:00−3св57405 0.0 10351214
11:00−1св56325 0.0 10351579
14:00+1св56295 0.0 10341839
17:00+1ссв66285 0.0 10342012
20:00−1св35392 0.0 1035109
20 апреля, вт
вт2023:00−2всв11403 0.0 103610
02:00−2сз11400 0.0 103610
05:00−3сз22450 0.0 103734
08:000ссз34355 0.0 1037415
11:00+3сз34295 0.0 10361354
14:00+6зсз45285 0.0 10341528
17:00+7зсз57290 0.0 10331629
20:00+5з34430 0.0 103259
21 апреля, ср
ср2123:00+3з47543 0.0 1032120
02:00+1зсз48660 0.0 1032136
05:000сз48720 0.0 1033139
08:00+4ссз57590 0.0 1034295
11:00+8ссз45440 0.0 1033971
14:00+11ссз45375 0.0 10331448
17:00+12с44365 0.0 10331555
20:00+9ссв22491 0.0 103411